Weather in Picheury

Russia / Republic of Mordovia     54°19′05″N   45°49′19″E
temp.,
°C
wind,
m/s
gust,
m/s
humid.,
%
clouds,
%
prec.,
mm/h
press.,
hPa
HPBL,
m
7 march, sun
sun700:00−12w129794 0.1 101321
03:00−15w229887 0.1 101320
06:00−16wsw239619 0.0 101320
09:00−12sw489425 0.0 1012263
12:00−8sw7118698 0.0 1010621
15:00−7ssw8148799 0.0 1006786
18:00−6ssw81594100 0.6 10021028
21:00−5sw101792100 1.9 9991079
8 march, mon
mon800:00−4sw81691100 0.3 995840
03:00−3w91584100 0.8 994888
06:00−8wsw5129489 0.0 997415
09:00−8wsw7128895 0.1 1000520
12:00−5sw7118523 0.0 1000847
15:00−3wsw8129160 1.1 9991108
18:00−6wsw61482100 0.6 1001648
21:00−8wnw7129274 0.7 1005371
9 march, tue
tue900:00−13w349647 0.0 100755
03:00−16w239723 0.0 100920
06:00−17wsw229854 0.0 101020
09:00−13wsw239476 0.0 1011166
12:00−10wnw238898 0.1 1011392
15:00−9nw349199 0.1 1011415
18:00−12nnw4795100 0.2 1012256
21:00−14nnw4895100 0.3 1014269
10 march, wed
wed1000:00−18nw479891 0.1 1015148
03:00−20nw479994 0.1 1016136
06:00−20nw489899 0.1 1018233
09:00−20nnw589596 0.1 1020386
12:00−19nw5792100 0.0 1021527
15:00−19nw6891100 0.1 1022573
18:00−24nw489698 0.0 1024154
21:00−26nw349987 0.0 102661
11 march, thu
thu1100:00−27nw2310098 0.0 102719
03:00−28wnw2310088 0.0 102819
06:00−28wnw2310068 0.0 102920
09:00−23wnw479774 0.0 1029235
12:00−18wnw589388 0.0 1029323
15:00−14wnw599294 0.1 1028528
18:00−15wnw4995100 0.1 1029212
21:00−17nw469893 0.1 1031102